Flight Track Log - Related Links

Times and Time Zones

All times are in EDT time to prevent confusion due to time zone crossing. See the ASQ5929 flight status page for this flight to view local times or setup timezone preferences in your user account.

Time Position Orientation Groundspeed Altitude Reporting Facility
EDT Latitude Longitude Course Direction KTS MPH feet Rate Location/Type
Tue 05:24:04 PM 39.0500 -84.6833 351° North 182 209 1,500  Level Cincinnati TRACON
Tue 05:24:34 PM 39.0500 -84.7167 270° West 185 213 2,500 2,071 Climbing Cincinnati TRACON
Tue 05:25:28 PM 39.0500 -84.8000 270° West 268 308 4,400 2,421 Climbing Cincinnati TRACON
Tue 05:26:28 PM 39.1000 -84.8667 314° West 270 311 7,100 2,455 Climbing Cincinnati TRACON
Tue 05:27:00 PM 38.9354 -84.8145 308° West  Level FlightAware Approximate
Tue 05:27:18 PM 39.1472 -84.8819 346° North 279 321 8,900  Level Indianapolis Center
Tue 05:28:00 PM 38.9902 -84.8745 345° North  Level FlightAware Approximate
Tue 05:28:20 PM 39.2258 -84.9083 345° North 289 333 10,600  Level Indianapolis Center
Tue 05:29:00 PM 39.0642 -84.8928 351° North  Level FlightAware Approximate
Tue 05:29:22 PM 39.3356 -84.9431 346° North 341 392 12,400  Level Indianapolis Center
Tue 05:30:24 PM 39.4300 -84.9744 346° North 349 402 14,400 1,548 Climbing Indianapolis Center
Tue 05:31:26 PM 39.5225 -85.0228 338° Northwest 362 417 15,600 1,065 Climbing Indianapolis Center
Tue 05:32:28 PM 39.6153 -85.0847 333° Northwest 372 428 16,600 968 Climbing Indianapolis Center
Tue 05:33:30 PM 39.7114 -85.1494 333° Northwest 385 443 17,600 677 Climbing Indianapolis Center
Tue 05:34:32 PM 39.8267 -85.2272 333° Northwest 396 456 18,000 194 Climbing Indianapolis Center
Tue 05:35:34 PM 39.9294 -85.2956 333° Northwest 408 470 18,000  Level Indianapolis Center
Tue 05:36:36 PM 40.0319 -85.3642 333° Northwest 412 474 18,000  Level Indianapolis Center
Tue 05:37:38 PM 40.1311 -85.4325 332° Northwest 406 467 18,000 462 Level Indianapolis Center
Tue 05:38:33 PM 40.2311 -85.4986 333° Northwest 404 465 18,900 974 Climbing Chicago Center
Tue 05:39:35 PM 40.3331 -85.5686 332° Northwest 411 473 19,900 532 Climbing Chicago Center
Tue 05:40:37 PM 40.4381 -85.6386 333° Northwest 421 484 20,000 48 Climbing Chicago Center
Tue 05:41:39 PM 40.5506 -85.6992 338° Northwest 433 498 20,000  Level Chicago Center
Tue 05:42:41 PM 40.6450 -85.7908 324° Northwest 430 495 20,000  Level Chicago Center
Tue 05:43:43 PM 40.7214 -85.9375 305° West 430 495 20,000  Level Chicago Center
Tue 05:44:45 PM 40.7892 -86.0661 305° West 427 491 20,000  Level Chicago Center
Tue 05:45:48 PM 40.8567 -86.1967 304° West 430 495 20,000 -528 Level Chicago Center
Tue 05:46:50 PM 40.9242 -86.3269 304° West 429 494 18,900 -1,016 Descending Chicago Center
Tue 05:47:52 PM 40.9869 -86.4517 304° West 412 474 17,900 -871 Descending Chicago Center
Tue 05:48:54 PM 41.0528 -86.5758 305° West 410 472 17,100 -387 Descending Chicago Center
Tue 05:49:56 PM 41.1133 -86.6972 304° West 396 456 17,100  Level Chicago Center
Tue 05:50:58 PM 41.1783 -86.8253 304° West 400 460 17,100 -1,113 Level Chicago Center
Tue 05:52:00 PM 41.2514 -86.9678 304° West 391 450 14,800 -2,661 Descending Chicago Center
Tue 05:53:02 PM 41.3075 -87.0811 303° West 374 430 11,600 -1,839 Descending Chicago Center
Tue 05:54:04 PM 41.3633 -87.1892 305° West 359 413 11,000 -290 Descending Chicago Center
Tue 05:55:06 PM 41.4336 -87.2767 317° Northwest 351 404 11,000  Level Chicago Center
Tue 05:55:56 PM 41.5000 -87.3667 315° West 355 409 11,000  Level Chicago TRACON
Tue 05:56:56 PM 41.5833 -87.4500 323° Northwest 358 412 11,000  Level Chicago TRACON
Tue 05:57:56 PM 41.6667 -87.5333 323° Northwest 356 410 11,000  Level Chicago TRACON
Tue 05:58:13 PM 41.6731 -87.5483 300° West 357 411 11,000 -608 Level Chicago Center
Tue 05:59:15 PM 41.7403 -87.6231 320° Northwest 314 361 10,200 -1,282 Descending Chicago Center
Tue 05:59:56 PM 41.7833 -87.6833 314° West 288 331 8,800 -1,842 Descending Chicago TRACON
Tue 06:00:56 PM 41.8500 -87.7333 331° Northwest 289 333 7,100 -893 Descending Chicago TRACON
Tue 06:01:57 PM 41.9333 -87.7500 352° North 288 331 7,000 -645 Descending Chicago TRACON
Tue 06:02:57 PM 42.0000 -87.7000 29° Northeast 246 283 5,800 -1,400 Descending Chicago TRACON
Tue 06:03:57 PM 42.0500 -87.6500 37° Northeast 230 265 4,200 -1,333 Descending Chicago TRACON
Tue 06:05:03 PM 42.0833 -87.7167 304° West 197 227 3,000 -571 Descending Chicago TRACON
Tue 06:06:03 PM 42.0667 -87.7667 246° West 171 197 3,000  Level Chicago TRACON

Login

Don't have an account? Register now (free) for customized features, flight alerts, and more!